Temp
-3 -3 -3 -3 -3 -3 -3 -3 -3 -2 -2 -3 -2 -2 -2 -2 -2 -2 -2 -3 -4 -4 -5 -5 -6 -6 -7 -6 -7 -7 -6 -5 -4 -4 -5 -4 -5 -4 -4 -5 -5 -5 -5 -5 -4
-3 -3 -3 -3 -3 -3 -3 -3 -3 -3 -3 -3 -3 -2 -2 -2 -2 -2 -2 -3 -3 -4 -4 -7 -4 -5 -6 -7 -7 -6 -5 -5 -4 -4 -5 -5 -4 -4 -4 -4 -4 -5 -5 -5 -5
-3 -3 -3 -3 -3 -3 -3 -3 -3 -3 -3 -3 -3 -3 -2 -2 -2 -2 -2 -3 -3 -4 -5 -4 -6 -5 -6 -6 -5 -6 -5 -5 -4 -5 -4 -5 -4 -4 -5 -4 -5 -5 -5 -5 -5
-3 -3 -3 -3 -3 -3 -3 -3 -3 -3 -3 -3 -3 -3 -3 -2 -2 -2 -2 -2 -3 -3 -4 -5 -5 -6 -5 -7 -6 -6 -6 -6 -5 -4 -4 -4 -4 -5 -5 -5 -5 -5 -5 -5 -5
-3 -3 -3 -2 -2 -3 -3 -3 -3 -3 -3 -3 -3 -3 -3 -3 -3 -2 -2 -2 -2 -3 -3 -5 -5 -6 -7 -6 -6 -5 -6 -6 -6 -5 -4 -5 -6 -5 -5 -5 -5 -5 -5 -5 -5
-3 -3 -3 -3 -2 -2 -2 -2 -2 -2 -3 -3 -3 -3 -3 -3 -3 -3 -2 -2 -2 -3 -3 -4 -4 -6 -6 -7 -7 -6 -6 -5 -5 -5 -5 -5 -5 -5 -5 -5 -5 -5 -5 -5 -5
-4 -4 -3 -3 -3 -3 -3 -3 -2 -2 -2 -2 -3 -3 -3 -3 -3 -3 -3 -3 -3 -3 -3 -3 -3 -5 -5 -6 -6 -5 -5 -6 -6 -6 -6 -6 -5 -5 -6 -5 -5 -5 -5 -5 -5
-5 -4 -4 -4 -4 -3 -3 -3 -3 -3 -3 -2 -2 -2 -3 -2 -3 -3 -3 -3 -2 -3 -3 -4 -3 -5 -6 -6 -7 -6 -4 -5 -6 -6 -6 -6 -6 -6 -6 -6 -5 -5 -5 -5 -5
-5 -5 -5 -5 -5 -4 -4 -4 -3 -3 -3 -3 -3 -3 -2 -3 -3 -2 -3 -3 -3 -3 -3 -3 -4 -4 -6 -6 -5 -5 -6 -5 -6 -6 -6 -6 -6 -6 -6 -6 -6 -5 -5 -6 -5
-5 -5 -5 -5 -5 -5 -5 -5 -4 -4 -4 -3 -3 -3 -3 -3 -3 -3 -3 -3 -3 -3 -3 -3 -4 -3 -4 -5 -5 -5 -6 -6 -7 -7 -7 -6 -6 -6 -6 -6 -6 -6 -6 -6 -6
-5 -5 -5 -5 -5 -5 -5 -5 -5 -5 -5 -5 -4 -4 -4 -3 -3 -4 -4 -3 -3 -3 -3 -3 -3 -4 -4 -4 -6 -6 -6 -6 -6 -7 -5 -6 -5 -5 -5 -6 -6 -6 -6 -6 -6
-5 -5 -5 -5 -5 -5 -5 -5 -6 -5 -5 -5 -5 -5 -5 -4 -4 -4 -3 -3 -3 -3 -3 -3 -3 -4 -4 -5 -5 -6 -6 -6 -5 -6 -6 -6 -5 -5 -6 -6 -5 -5 -6 -6 -6
-6 -6 -5 -5 -5 -5 -5 -5 -5 -5 -6 -5 -5 -5 -5 -5 -5 -4 -4 -4 -4 -3 -4 -3 -4 -4 -4 -6 -6 -6 -6 -6 -6 -6 -6 -6 -6 -5 -5 -5 -5 -5 -5 -5 -5
-6 -6 -5 -5 -5 -5 -5 -5 -5 -5 -6 -5 -5 -5 -5 -5 -5 -5 -5 -5 -4 -4 -4 -4 -4 -4 -6 -6 -6 -6 -6 -6 -7 -7 -6 -6 -5 -5 -5 -7 -5 -5 -5 -5 -5
-6 -6 -5 -5 -5 -5 -5 -5 -5 -5 -6 -5 -6 -6 -5 -5 -5 -5 -5 -5 -5 -4 -4 -4 -4 -5 -7 -7 -6 -6 -6 -7 -5 -7 -6 -6 -6 -6 -6 -6 -6 -5 -5 -5 -5
-6 -5 -5 -5 -5 -5 -5 -5 -5 -6 -7 -6 -6 -6 -6 -5 -5 -5 -5 -5 -5 -5 -5 -4 -5 -6 -7 -7 -6 -6 -6 -6 -6 -6 -5 -5 -6 -6 -6 -7 -6 -5 -5 -5 -5
-6 -6 -6 -6 -5 -5 -5 -5 -6 -6 -7 -8 -8 -6 -6 -6 -6 -5 -6 -6 -6 -5 -5 -5 -5 -5 -6 -6 -5 -5 -5 -5 -5 -5 -4 -5 -5 -5 -5 -5 -5 -5 -5 -4 -5
-6 -6 -6 -6 -6 -6 -6 -6 -6 -7 -8 -8 -8 -8 -7 -6 -6 -7 -6 -6 -6 -6 -6 -6 -5 -5 -4 -4 -4 -5 -5 -5 -5 -4 -5 -5 -5 -5 -5 -5 -4 -5 -5 -5 -5
-6 -6 -6 -6 -5 -6 -6 -6 -7 -7 -7 -8 -9 -8 -9 -8 -8 -8 -7 -7 -7 -6 -6 -6 -6 -6 -6 -5 -5 -5 -5 -5 -6 -5 -6 -5 -5 -5 -5 -5 -5 -5 -5 -6 -6
-6 -6 -6 -6 -6 -5 -6 -6 -7 -6 -6 -6 -8 -8 -9 -8 -9 -8 -8 -8 -7 -6 -7 -7 -7 -7 -7 -7 -6 -5 -6 -6 -6 -5 -5 -5 -5 -5 -5 -5 -4 -6 -6 -6 -6
-6 -5 -6 -6 -6 -6 -6 -6 -7 -7 -7 -7 -8 -8 -8 -9 -8 -8 -8 -8 -8 -8 -8 -7 -7 -7 -7 -6 -7 -6 -6 -6 -6 -6 -5 -5 -5 -5 -6 -6 -5 -5 -7 -7 -7
-6 -5 -6 -6 -6 -6 -6 -6 -7 -6 -6 -6 -7 -8 -7 -9 -9 -9 -8 -8 -8 -8 -8 -8 -7 -7 -7 -7 -7 -7 -6 -6 -6 -5 -5 -5 -5 -6 -5 -6 -6 -6 -7 -6 -7
-6 -6 -6 -6 -6 -6 -6 -6 -6 -7 -6 -7 -7 -8 -8 -9 -8 -9 -8 -8 -8 -8 -8 -8 -8 -7 -7 -7 -7 -6 -6 -6 -6 -6 -5 -5 -5 -5 -5 -6 -6 -6 -6 -7 -7
-7 -7 -6 -7 -6 -6 -6 -7 -7 -7 -6 -7 -7 -7 -8 -8 -8 -8 -8 -8 -8 -8 -8 -8 -8 -8 -7 -6 -7 -7 -6 -6 -6 -6 -5 -5 -5 -6 -6 -6 -6 -6 -6 -6 -7
-8 -7 -6 -6 -7 -6 -6 -7 -7 -6 -7 -7 -7 -7 -7 -7 -8 -8 -9 -9 -9 -9 -8 -8 -8 -8 -7 -7 -7 -6 -6 -6 -6 -5 -6 -5 -6 -6 -6 -7 -7 -6 -6 -7 -7
-8 -7 -7 -8 -8 -7 -7 -7 -7 -7 -7 -7 -7 -8 -8 -8 -8 -8 -9 -8 -9 -9 -8 -8 -8 -8 -7 -7 -7 -7 -7 -6 -6 -6 -5 -5 -6 -6 -6 -6 -7 -6 -6 -7 -7
-9 -9 -9 -9 -8 -8 -8 -8 -8 -7 -7 -7 -7 -8 -9 -8 -8 -7 -7 -8 -8 -7 -8 -8 -8 -8 -7 -7 -7 -7 -6 -6 -6 -6 -6 -5 -6 -6 -6 -6 -6 -6 -6 -6 -6
Height
5939 5940 5941 5941 5942 5942 5943 5943 5943 5943 5943 5942 5942 5942 5941 5941 5941 5942 5942 5941 5939 5937 5935 5934 5928 5932 5926 5924 5926 5917 5929 5926 5921 5921 5921 5921 5921 5922 5923 5924 5925 5926 5926 5928 5929
5936 5937 5937 5939 5940 5940 5941 5941 5942 5942 5942 5942 5943 5942 5942 5942 5942 5943 5943 5941 5939 5937 5936 5935 5934 5933 5935 5929 5928 5931 5935 5929 5925 5923 5923 5923 5923 5924 5926 5927 5926 5927 5928 5929 5930
5933 5934 5935 5935 5936 5937 5938 5939 5939 5940 5941 5941 5942 5942 5943 5943 5943 5943 5943 5942 5940 5939 5938 5939 5933 5931 5928 5934 5932 5937 5934 5929 5928 5927 5926 5926 5926 5925 5925 5926 5927 5929 5929 5930 5931
5930 5930 5931 5932 5933 5934 5935 5936 5936 5937 5938 5939 5940 5940 5942 5943 5945 5943 5944 5943 5942 5940 5939 5936 5933 5934 5929 5933 5931 5939 5936 5934 5931 5929 5928 5927 5926 5929 5929 5929 5928 5930 5931 5932 5933
5925 5926 5927 5928 5929 5930 5931 5932 5933 5934 5935 5936 5937 5938 5940 5942 5943 5943 5943 5944 5943 5941 5940 5939 5936 5933 5940 5936 5944 5939 5939 5937 5935 5933 5933 5932 5932 5931 5931 5931 5932 5932 5933 5933 5933
5921 5921 5922 5923 5924 5925 5927 5928 5929 5930 5931 5932 5933 5935 5937 5939 5941 5942 5943 5943 5943 5942 5942 5940 5936 5939 5941 5941 5940 5937 5943 5943 5939 5938 5936 5937 5937 5936 5935 5935 5934 5935 5934 5935 5935
5917 5917 5917 5918 5919 5920 5921 5923 5924 5925 5927 5928 5929 5932 5934 5936 5938 5939 5941 5942 5943 5942 5942 5942 5938 5940 5941 5938 5938 5929 5941 5941 5944 5941 5942 5943 5940 5939 5938 5937 5937 5937 5936 5936 5935
5912 5912 5913 5913 5914 5914 5915 5917 5918 5920 5921 5923 5925 5927 5929 5932 5934 5936 5938 5940 5941 5941 5942 5941 5941 5941 5938 5938 5943 5942 5942 5934 5942 5946 5944 5944 5940 5942 5942 5941 5940 5939 5938 5937 5937
5907 5908 5907 5908 5908 5908 5909 5910 5912 5913 5915 5917 5919 5921 5923 5927 5929 5932 5936 5937 5938 5940 5940 5939 5941 5942 5938 5937 5944 5943 5941 5942 5942 5944 5946 5947 5943 5944 5944 5945 5943 5941 5940 5939 5938
5903 5903 5903 5903 5903 5903 5903 5904 5906 5907 5909 5910 5913 5915 5918 5921 5924 5928 5931 5934 5935 5937 5938 5937 5938 5942 5940 5943 5946 5944 5941 5942 5939 5943 5946 5945 5946 5945 5947 5947 5946 5943 5941 5939 5938
5899 5900 5899 5899 5899 5899 5900 5901 5903 5904 5903 5905 5907 5907 5911 5913 5918 5921 5923 5928 5931 5933 5935 5935 5935 5940 5941 5941 5944 5945 5945 5942 5939 5939 5945 5939 5943 5945 5948 5945 5945 5944 5943 5942 5940
5895 5895 5895 5895 5895 5895 5896 5897 5898 5900 5900 5901 5902 5903 5905 5908 5911 5914 5917 5923 5927 5930 5930 5932 5932 5937 5938 5939 5944 5940 5945 5948 5943 5947 5945 5941 5944 5942 5947 5949 5949 5946 5944 5943 5942
5891 5891 5891 5891 5891 5892 5893 5893 5894 5896 5898 5898 5900 5901 5901 5903 5904 5908 5912 5916 5921 5924 5926 5928 5933 5932 5935 5935 5940 5942 5944 5947 5946 5944 5946 5942 5941 5934 5944 5945 5947 5949 5948 5945 5942
5888 5888 5888 5888 5889 5889 5890 5890 5890 5891 5893 5896 5897 5898 5898 5899 5900 5902 5906 5910 5913 5919 5921 5924 5928 5928 5931 5937 5937 5940 5940 5937 5941 5946 5948 5941 5940 5939 5946 5944 5947 5947 5948 5946 5943
5886 5886 5886 5886 5886 5887 5888 5887 5888 5889 5889 5893 5895 5894 5895 5896 5898 5897 5900 5904 5908 5914 5917 5921 5923 5925 5928 5933 5937 5940 5940 5932 5943 5946 5947 5947 5943 5942 5943 5946 5948 5943 5946 5945 5943
5884 5884 5884 5884 5884 5885 5884 5885 5887 5888 5887 5888 5891 5891 5892 5892 5893 5893 5895 5899 5901 5905 5909 5914 5918 5920 5924 5928 5931 5934 5937 5939 5940 5943 5945 5945 5942 5943 5943 5942 5940 5942 5944 5945 5942
5880 5881 5881 5881 5881 5882 5882 5884 5887 5886 5889 5891 5887 5887 5889 5890 5889 5890 5892 5894 5897 5901 5904 5909 5913 5915 5918 5921 5925 5928 5933 5935 5937 5939 5941 5942 5943 5943 5940 5938 5939 5941 5943 5942 5941
5876 5877 5877 5877 5878 5879 5880 5883 5884 5885 5884 5891 5889 5888 5887 5887 5889 5888 5889 5890 5893 5895 5899 5904 5909 5911 5917 5921 5923 5926 5930 5932 5934 5937 5940 5941 5941 5941 5941 5940 5937 5939 5941 5939 5939
5872 5873 5873 5874 5874 5875 5877 5880 5879 5879 5878 5884 5884 5886 5887 5888 5888 5887 5886 5888 5890 5891 5895 5898 5904 5911 5915 5917 5919 5923 5923 5929 5930 5932 5934 5936 5936 5937 5935 5936 5933 5933 5935 5935 5939
5866 5867 5869 5869 5870 5871 5873 5876 5875 5877 5878 5878 5882 5883 5886 5890 5889 5889 5889 5888 5887 5888 5891 5897 5899 5903 5910 5913 5913 5917 5923 5924 5927 5929 5931 5934 5931 5932 5932 5932 5928 5930 5928 5933 5935
5860 5861 5864 5864 5865 5867 5869 5870 5870 5871 5872 5875 5878 5878 5880 5883 5885 5888 5889 5889 5888 5888 5889 5895 5897 5902 5903 5906 5911 5913 5917 5919 5922 5925 5928 5931 5931 5930 5928 5926 5924 5920 5926 5929 5924
5853 5854 5859 5857 5860 5861 5864 5864 5866 5867 5868 5871 5873 5876 5877 5879 5880 5884 5887 5888 5889 5888 5889 5891 5894 5897 5901 5906 5909 5910 5913 5918 5919 5923 5924 5927 5928 5926 5925 5923 5922 5923 5924 5927 5929
5845 5846 5851 5850 5853 5854 5856 5858 5860 5862 5863 5866 5868 5872 5876 5875 5876 5878 5882 5885 5885 5884 5885 5889 5890 5894 5897 5902 5906 5908 5909 5911 5916 5921 5922 5925 5927 5926 5926 5925 5925 5925 5928 5926 5919
5837 5837 5838 5842 5844 5847 5850 5852 5854 5855 5858 5860 5863 5864 5867 5869 5871 5875 5879 5882 5880 5881 5883 5883 5886 5889 5894 5899 5905 5905 5907 5909 5911 5914 5919 5923 5925 5920 5921 5924 5927 5926 5923 5924 5916
5825 5824 5830 5836 5835 5839 5840 5844 5847 5849 5851 5853 5857 5860 5862 5865 5869 5872 5875 5874 5875 5876 5876 5878 5880 5885 5892 5895 5898 5899 5903 5905 5907 5909 5912 5917 5918 5920 5916 5918 5922 5925 5925 5924 5924
5813 5817 5825 5825 5826 5831 5833 5836 5840 5843 5844 5847 5850 5854 5857 5861 5862 5861 5864 5869 5867 5869 5872 5874 5877 5881 5884 5888 5893 5896 5901 5901 5902 5904 5909 5911 5910 5913 5913 5915 5919 5922 5921 5923 5924
5803 5807 5810 5813 5815 5821 5825 5828 5831 5834 5838 5840 5843 5847 5850 5849 5848 5856 5860 5864 5864 5865 5869 5871 5874 5877 5880 5885 5890 5891 5894 5897 5899 5901 5902 5904 5905 5906 5906 5910 5913 5917 5919 5920 5920
Wind_Speed
16 16 14 12 9 7 5 3 1 2 3 6 6 6 6 2 2 4 5 6 6 9 7 16 11 13 30 34 25 25 12 11 15 14 13 10 10 10 11 13 11 12 12 10 12
13 12 15 18 16 14 12 11 9 7 6 4 4 4 5 3 2 3 4 4 2 5 12 11 8 17 26 28 25 18 16 17 13 15 14 11 9 7 8 13 13 11 9 9 7
15 15 14 13 14 16 17 18 17 14 12 10 8 4 1 1 1 1 4 3 1 2 2 6 16 19 26 26 23 16 20 23 19 12 14 10 7 12 10 11 10 7 9 8 8
18 17 17 17 17 17 16 15 15 17 17 15 12 10 6 2 3 1 2 3 2 2 4 12 19 29 24 23 18 13 16 18 20 21 15 12 15 13 10 12 11 6 5 6 8
22 21 21 21 20 19 18 17 17 16 14 15 14 12 10 8 3 3 5 5 3 2 3 3 14 18 13 16 9 15 13 15 18 22 20 19 12 12 12 13 10 9 5 4 5
23 24 24 24 23 23 22 21 19 18 17 16 14 13 11 10 10 7 6 5 5 4 2 2 5 7 9 16 4 8 14 15 23 17 20 17 15 15 11 11 10 8 8 7 5
23 24 25 25 25 25 24 24 23 22 21 20 19 17 14 12 11 14 10 8 7 6 5 6 3 5 10 3 5 19 10 17 21 19 14 15 20 18 11 9 10 8 7 7 7
21 22 23 24 25 25 25 25 25 25 25 25 24 21 20 15 15 13 14 12 9 8 8 8 4 3 8 8 3 9 7 14 15 13 14 17 22 20 18 13 9 8 7 8 7
20 21 21 22 23 23 23 24 25 25 25 26 25 26 25 21 22 18 15 15 15 11 11 13 9 6 6 6 12 17 4 11 10 19 14 18 20 19 20 19 17 13 9 8 7
17 16 17 17 17 18 18 18 20 22 22 25 25 27 27 26 24 21 19 18 17 16 14 15 14 10 10 8 9 7 5 7 9 16 3 6 16 16 13 14 17 17 15 12 9
20 18 17 16 15 16 17 15 14 12 16 20 20 25 23 25 23 25 25 25 22 22 17 17 18 11 9 5 6 7 4 3 13 13 14 12 9 10 12 13 15 17 13 12 9
19 18 18 17 15 14 15 16 15 11 12 11 13 18 20 19 23 24 27 25 25 23 23 23 19 13 14 7 3 2 8 11 16 7 15 20 9 12 13 17 16 12 14 10 9
13 13 15 17 17 15 14 16 16 14 12 12 10 10 14 16 20 21 24 25 26 28 27 25 17 14 12 9 9 3 9 11 14 14 16 16 15 10 7 16 11 19 13 11 10
8 7 9 10 10 10 11 13 15 15 16 14 10 10 11 12 15 19 20 23 27 28 30 28 22 22 10 10 10 8 21 4 3 6 12 15 20 15 11 13 12 22 17 6 10
6 6 8 8 8 8 9 10 9 10 14 11 7 10 11 12 10 16 18 20 23 26 30 28 25 24 17 14 18 17 18 11 13 13 8 12 19 23 27 24 18 19 5 4 7
11 10 9 9 9 8 8 7 6 4 5 12 6 10 11 11 12 14 15 17 23 26 30 31 27 28 27 26 25 23 25 22 14 11 13 1 20 25 25 22 4 5 5 3 8
14 12 12 12 12 10 9 7 4 5 3 13 16 3 8 9 13 12 11 16 19 24 28 29 30 32 30 33 27 29 26 28 21 12 1 13 15 18 29 27 17 6 9 5 8
14 13 13 13 14 12 11 8 5 11 10 9 19 21 8 8 6 12 11 11 16 21 24 25 28 31 29 24 27 23 23 28 24 6 2 15 26 24 19 17 3 11 6 3 6
16 15 14 14 15 15 13 9 12 20 17 18 15 2 4 6 7 13 12 7 12 17 22 21 20 6 14 20 22 22 26 21 17 17 18 15 20 16 19 15 16 13 8 4 4
20 19 16 17 17 16 14 12 17 16 17 15 15 10 3 7 15 10 10 14 11 11 17 18 17 18 10 19 20 23 18 14 18 19 19 13 17 20 23 14 11 6 6 12 8
21 19 16 18 19 18 15 16 19 21 20 14 14 20 17 8 10 10 8 6 15 11 8 22 21 19 4 22 18 21 26 25 20 15 8 6 19 24 12 14 18 13 8 16 7
23 24 16 22 20 20 18 20 21 22 20 12 18 23 19 17 12 7 13 6 16 18 17 15 25 23 15 19 18 16 21 28 28 20 17 17 19 16 22 20 12 11 8 25 21
29 28 22 25 21 22 24 24 23 23 22 15 18 19 17 25 19 18 19 7 13 20 17 21 22 26 24 21 20 14 18 22 18 22 21 12 15 19 15 10 14 9 18 17 26
31 31 32 27 26 23 23 24 25 25 21 21 21 23 28 30 29 23 22 5 22 23 22 21 23 26 24 15 15 21 15 18 19 19 15 10 14 19 22 12 22 16 20 13 16
35 39 34 28 29 27 28 27 27 26 24 24 23 23 24 27 24 17 20 11 15 23 18 20 27 20 25 23 17 10 18 14 32 27 26 22 18 15 15 13 9 13 11 14 12
40 38 30 28 30 29 28 26 27 25 24 25 26 24 22 20 26 28 30 25 22 14 10 15 24 27 33 24 18 10 14 15 15 12 31 30 21 23 25 32 14 17 10 14 14
39 35 35 35 34 30 30 29 28 28 27 28 25 28 23 33 37 32 29 32 28 21 15 5 18 30 36 28 21 14 22 22 13 16 16 35 22 25 21 14 17 19 17 18 18
Wind_Direction
254 249 248 244 243 247 248 250 283 334 5 33 29 43 61 99 141 112 90 68 47 58 33 25 342 11 61 57 68 64 21 65 72 80 81 81 79 75 81 83 86 95 101 92 95
259 259 253 249 249 251 254 261 265 272 274 297 354 14 43 54 189 149 115 106 37 33 31 26 348 43 63 69 58 52 43 58 59 77 80 79 76 95 93 108 96 98 103 106 100
255 255 255 253 251 253 255 257 259 262 268 271 273 286 8 53 163 138 141 158 263 28 48 24 31 38 56 20 78 50 37 43 50 61 69 82 101 76 67 76 85 78 93 102 100
263 260 257 255 254 255 256 257 259 256 258 264 267 259 248 189 237 152 202 187 211 317 2 7 24 35 32 27 25 74 53 46 48 53 56 68 65 55 76 79 81 82 88 98 103
265 264 263 261 259 258 256 255 255 257 257 254 257 255 249 223 221 226 203 209 225 226 312 38 66 28 29 44 15 74 67 59 48 42 52 56 60 50 47 58 60 69 80 86 87
265 265 265 263 261 259 257 256 255 253 253 252 249 249 249 240 216 217 216 216 224 236 245 304 76 83 71 48 27 83 72 61 60 66 69 67 63 62 52 51 60 62 74 73 77
265 265 265 266 265 264 262 259 256 253 250 250 248 245 242 236 221 212 213 216 217 233 222 243 322 166 110 135 321 156 117 81 55 60 74 45 70 64 57 52 53 57 62 70 76
266 265 265 265 266 265 264 262 259 256 254 249 247 244 239 237 225 214 211 216 214 212 219 238 274 158 184 119 333 313 125 180 97 41 67 56 60 46 48 47 48 50 56 59 56
268 269 270 268 266 265 262 261 259 257 254 252 250 246 240 234 224 224 212 212 218 212 208 233 206 208 141 355 349 347 102 99 69 43 54 63 66 58 52 44 46 48 47 53 59
271 271 272 274 272 270 268 266 261 257 254 250 249 248 245 240 235 231 224 215 217 219 211 225 222 212 256 76 47 58 338 127 95 35 38 109 59 55 45 39 31 33 35 41 43
270 267 267 269 270 271 264 266 266 265 259 254 250 249 244 239 234 227 226 216 212 219 217 221 232 214 233 142 283 97 281 127 108 32 359 350 87 71 46 57 43 25 21 30 35
268 263 258 262 266 269 260 256 259 258 267 264 255 256 252 244 237 229 231 227 216 216 221 223 232 207 227 208 234 123 314 17 342 73 18 337 124 75 28 26 2 13 9 12 19
271 265 259 262 263 264 266 260 258 256 252 266 267 259 259 247 243 233 232 225 218 213 219 225 223 212 206 213 257 296 312 348 3 356 3 300 301 142 359 3 343 350 350 15 13
278 274 270 269 268 269 270 270 267 264 257 253 263 255 256 257 249 241 230 228 221 213 216 221 214 223 193 227 222 267 272 184 1 324 313 295 321 316 306 332 336 343 327 357 23
273 267 267 271 275 277 280 278 276 263 261 255 244 249 253 262 257 251 237 230 227 218 219 213 213 209 187 232 212 197 270 329 278 225 256 285 291 294 300 305 304 322 266 316 32
272 270 272 276 278 277 277 284 286 257 276 286 295 254 254 260 264 257 248 231 224 218 219 214 212 196 196 208 209 212 195 217 228 268 280 165 258 275 281 288 301 77 338 9 71
269 266 266 270 273 273 275 278 270 198 90 328 304 314 245 261 275 269 245 240 230 227 225 221 220 212 219 223 223 220 213 218 233 243 34 304 283 298 314 319 317 289 340 286 80
265 262 260 260 265 266 265 263 211 170 87 291 282 286 291 278 235 288 274 246 235 224 219 225 221 232 242 248 248 243 234 227 242 201 350 296 298 297 295 335 258 241 24 295 83
260 265 261 260 262 260 257 248 219 202 199 206 242 236 260 344 317 298 321 295 240 230 227 214 207 213 247 249 238 237 233 224 234 217 258 271 294 288 306 307 255 183 47 65 37
259 261 262 259 256 259 256 234 239 258 259 250 232 181 130 270 289 255 269 310 312 223 214 204 187 191 270 260 258 230 227 204 232 243 243 257 292 293 312 300 268 272 66 14 280
260 257 256 255 256 255 250 237 231 234 245 237 207 205 169 213 268 268 284 295 311 293 247 190 197 172 241 229 258 245 218 222 208 221 246 233 295 297 311 301 282 261 358 324 206
262 263 252 257 257 251 244 240 238 248 258 235 224 223 202 186 194 201 266 206 263 282 213 227 197 178 160 243 272 267 224 219 221 209 213 251 288 298 316 291 285 302 310 313 285
259 260 251 253 251 245 236 236 238 248 253 234 229 215 226 196 201 194 212 233 246 244 251 206 213 183 181 186 236 283 240 201 219 226 210 233 282 283 272 219 232 250 288 289 279
256 254 252 243 247 243 242 244 248 242 246 240 233 219 213 214 220 211 217 197 270 264 264 232 212 220 190 172 216 266 273 250 193 210 200 221 253 243 250 260 265 270 294 291 282
250 252 254 249 245 237 235 237 240 244 238 236 233 237 238 230 225 192 171 208 252 273 278 227 202 203 183 193 216 236 255 274 220 210 205 201 234 266 240 243 250 273 309 210 233
249 252 252 246 240 237 237 244 240 241 235 232 233 228 228 227 233 202 186 196 218 251 235 216 221 195 187 195 181 207 235 254 272 232 204 209 246 259 255 256 258 284 302 210 219
246 244 241 236 237 235 237 234 233 233 236 236 227 221 221 217 223 223 212 210 218 237 245 186 209 196 195 190 191 215 214 202 207 261 237 215 246 254 276 266 271 275 274 254 246